Time,TemperatureF,DewpointF,PressureIn,WindDirection,WindDirectionDegrees,WindSpeedMPH,WindSpeedGustMPH,Humidity,HourlyPrecipIn,Conditions,Clouds,dailyrainin,SoftwareType,DateUTC
2013-02-24 00:00:00,31.3,31.3,29.93,ESE,112,0.0,4.9,100,0.00,,,0.00,WUHU21623XXSP,2013-02-24 05:00:00,
2013-02-24 00:05:00,31.5,31.5,29.94,ESE,112,0.0,1.8,100,0.00,,,0.00,WUHU21623XXSP,2013-02-24 05:05:00,
2013-02-24 00:10:00,31.5,31.5,29.94,ESE,112,0.0,0.0,100,0.00,,,0.00,WUHU21623XXSP,2013-02-24 05:10:00,
2013-02-24 00:15:00,31.5,31.5,29.94,ESE,112,0.0,0.0,100,0.00,,,0.00,WUHU21623XXSP,2013-02-24 05:15:00,
2013-02-24 00:20:00,31.5,31.5,29.94,ESE,112,0.0,0.0,100,0.00,,,0.00,WUHU21623XXSP,2013-02-24 05:20:00,
2013-02-24 00:25:00,31.5,31.5,29.93,ESE,112,0.0,0.0,100,0.00,,,0.00,WUHU21623XXSP,2013-02-24 05:25:00,
2013-02-24 00:30:00,31.5,31.5,29.93,ESE,112,0.0,0.0,100,0.00,,,0.00,WUHU21623XXSP,2013-02-24 05:30:00,
2013-02-24 00:35:00,31.3,31.3,29.93,ESE,112,0.0,0.0,100,0.00,,,0.00,WUHU21623XXSP,2013-02-24 05:35:00,
2013-02-24 00:40:00,31.3,31.3,29.93,ESE,112,0.0,0.0,100,0.00,,,0.00,WUHU21623XXSP,2013-02-24 05:40:00,
2013-02-24 00:45:00,31.5,31.5,29.93,ESE,112,0.0,0.0,100,0.00,,,0.00,WUHU21623XXSP,2013-02-24 05:45:00,
2013-02-24 00:50:00,31.5,31.5,29.92,ESE,112,0.0,0.0,100,0.00,,,0.00,WUHU21623XXSP,2013-02-24 05:50:00,
2013-02-24 00:55:00,31.3,31.3,29.92,ESE,112,0.0,0.0,100,0.00,,,0.00,WUHU21623XXSP,2013-02-24 05:55:00,
2013-02-24 01:00:00,31.3,31.3,29.92,ESE,112,0.0,0.0,100,0.00,,,0.00,WUHU21623XXSP,2013-02-24 06:00:00,
2013-02-24 01:05:00,31.3,31.3,29.92,ESE,112,0.0,0.0,100,0.00,,,0.00,WUHU21623XXSP,2013-02-24 06:05:00,
2013-02-24 01:10:00,31.3,31.3,29.92,ESE,112,0.0,0.0,100,0.00,,,0.00,WUHU21623XXSP,2013-02-24 06:10:00,
2013-02-24 01:15:00,31.5,31.5,29.91,ESE,112,0.0,0.0,100,0.00,,,0.00,WUHU21623XXSP,2013-02-24 06:15:00,
2013-02-24 01:20:00,31.1,31.1,29.92,ESE,112,0.0,0.0,100,0.00,,,0.00,WUHU21623XXSP,2013-02-24 06:20:00,
2013-02-24 01:25:00,31.1,31.1,29.91,ESE,112,0.0,0.0,100,0.00,,,0.00,WUHU21623XXSP,2013-02-24 06:25:00,
2013-02-24 01:30:00,31.1,31.1,29.91,ESE,112,0.0,0.0,100,0.00,,,0.00,WUHU21623XXSP,2013-02-24 06:30:00,
2013-02-24 01:35:00,31.1,31.1,29.91,ESE,112,0.0,0.0,100,0.00,,,0.00,WUHU21623XXSP,2013-02-24 06:35:00,
2013-02-24 01:40:00,31.1,31.1,29.90,ESE,112,0.0,0.0,100,0.00,,,0.00,WUHU21623XXSP,2013-02-24 06:40:00,
2013-02-24 01:45:00,31.3,31.3,29.91,ESE,112,0.0,0.0,100,0.00,,,0.00,WUHU21623XXSP,2013-02-24 06:45:00,
2013-02-24 01:50:00,31.1,31.1,29.90,ESE,112,0.0,0.0,100,0.00,,,0.00,WUHU21623XXSP,2013-02-24 06:50:00,
2013-02-24 01:55:00,31.1,31.1,29.90,ESE,112,0.0,0.0,100,0.00,,,0.00,WUHU21623XXSP,2013-02-24 06:55:00,
2013-02-24 02:00:00,31.3,31.3,29.89,ESE,112,0.0,0.0,100,0.00,,,0.00,WUHU21623XXSP,2013-02-24 07:00:00,
2013-02-24 02:05:00,31.1,31.1,29.89,ESE,112,0.0,0.0,100,0.00,,,0.00,WUHU21623XXSP,2013-02-24 07:05:00,
2013-02-24 02:10:00,30.9,30.9,29.89,ESE,112,0.0,0.0,100,0.00,,,0.00,WUHU21623XXSP,2013-02-24 07:10:00,
2013-02-24 02:15:00,31.1,31.1,29.89,ESE,112,0.0,0.0,100,0.00,,,0.00,WUHU21623XXSP,2013-02-24 07:15:00,
2013-02-24 02:20:00,30.9,30.9,29.88,ESE,112,0.0,0.0,100,0.00,,,0.00,WUHU21623XXSP,2013-02-24 07:20:00,
2013-02-24 02:25:00,30.9,30.9,29.87,ESE,112,0.0,0.0,100,0.00,,,0.00,WUHU21623XXSP,2013-02-24 07:25:00,
2013-02-24 02:30:00,30.9,30.9,29.88,ESE,112,0.0,0.0,100,0.00,,,0.00,WUHU21623XXSP,2013-02-24 07:30:00,
2013-02-24 02:35:00,31.1,31.1,29.87,ESE,112,0.0,0.0,100,0.00,,,0.00,WUHU21623XXSP,2013-02-24 07:35:00,
2013-02-24 02:40:00,30.9,30.9,29.87,ESE,112,0.0,0.0,100,0.00,,,0.00,WUHU21623XXSP,2013-02-24 07:40:00,
2013-02-24 02:45:00,30.9,30.9,29.87,ESE,112,0.0,0.0,100,0.00,,,0.00,WUHU21623XXSP,2013-02-24 07:45:00,
2013-02-24 02:50:00,30.9,30.9,29.86,ESE,112,0.0,0.0,100,0.00,,,0.00,WUHU21623XXSP,2013-02-24 07:50:00,
2013-02-24 02:55:00,31.1,31.1,29.86,ESE,112,0.0,0.0,100,0.00,,,0.00,WUHU21623XXSP,2013-02-24 07:55:00,
2013-02-24 03:00:00,30.9,30.9,29.86,ESE,112,0.0,0.0,100,0.00,,,0.00,WUHU21623XXSP,2013-02-24 08:00:00,
2013-02-24 03:05:00,31.1,31.1,29.86,ESE,112,0.0,0.0,100,0.00,,,0.00,WUHU21623XXSP,2013-02-24 08:05:00,
2013-02-24 03:10:00,30.9,30.9,29.86,ESE,112,0.0,0.0,100,0.00,,,0.00,WUHU21623XXSP,2013-02-24 08:10:00,
2013-02-24 03:15:00,30.9,30.9,29.86,ESE,112,0.0,0.0,100,0.00,,,0.00,WUHU21623XXSP,2013-02-24 08:15:00,
2013-02-24 03:20:00,30.9,30.9,29.86,ESE,112,0.0,0.0,100,0.00,,,0.00,WUHU21623XXSP,2013-02-24 08:20:00,
2013-02-24 03:25:00,30.9,30.9,29.86,ESE,112,0.0,0.0,100,0.00,,,0.00,WUHU21623XXSP,2013-02-24 08:25:00,
2013-02-24 03:30:00,30.9,30.9,29.85,ESE,112,0.0,0.0,100,0.00,,,0.00,WUHU21623XXSP,2013-02-24 08:30:00,
2013-02-24 03:35:00,30.9,30.9,29.86,ESE,112,0.0,0.0,100,0.00,,,0.00,WUHU21623XXSP,2013-02-24 08:35:00,
2013-02-24 03:40:00,30.9,30.9,29.85,ESE,112,0.0,0.0,100,0.00,,,0.00,WUHU21623XXSP,2013-02-24 08:40:00,
2013-02-24 03:45:00,30.9,30.9,29.85,ESE,112,0.0,0.0,100,0.00,,,0.00,WUHU21623XXSP,2013-02-24 08:45:00,
2013-02-24 03:50:00,30.9,30.9,29.85,ESE,112,0.0,0.0,100,0.00,,,0.00,WUHU21623XXSP,2013-02-24 08:50:00,
2013-02-24 03:55:00,30.9,30.9,29.85,ESE,112,0.0,0.0,100,0.00,,,0.00,WUHU21623XXSP,2013-02-24 08:55:00,
2013-02-24 04:00:00,30.9,30.9,29.85,ESE,112,0.0,0.0,100,0.00,,,0.00,WUHU21623XXSP,2013-02-24 09:00:00,
2013-02-24 04:05:00,30.9,30.9,29.85,ESE,112,0.0,0.0,100,0.00,,,0.00,WUHU21623XXSP,2013-02-24 09:05:00,
2013-02-24 04:10:00,30.9,30.9,29.85,ESE,112,0.0,0.0,100,0.00,,,0.00,WUHU21623XXSP,2013-02-24 09:10:00,
2013-02-24 04:15:00,30.9,30.9,29.85,ESE,112,0.0,0.0,100,0.00,,,0.00,WUHU21623XXSP,2013-02-24 09:15:00,
2013-02-24 04:20:00,30.9,30.9,29.84,ESE,112,0.0,0.0,100,0.00,,,0.00,WUHU21623XXSP,2013-02-24 09:20:00,
2013-02-24 04:25:00,30.9,30.9,29.85,ESE,112,0.0,0.0,100,0.00,,,0.00,WUHU21623XXSP,2013-02-24 09:25:00,
2013-02-24 04:30:00,30.7,30.7,29.85,ESE,112,0.0,0.0,100,0.00,,,0.00,WUHU21623XXSP,2013-02-24 09:30:00,
2013-02-24 04:35:00,30.9,30.9,29.84,ESE,112,0.0,0.0,100,0.00,,,0.00,WUHU21623XXSP,2013-02-24 09:35:00,
2013-02-24 04:40:00,30.9,30.9,29.84,ESE,112,0.0,0.0,100,0.00,,,0.00,WUHU21623XXSP,2013-02-24 09:40:00,
2013-02-24 04:45:00,30.7,30.7,29.84,ESE,112,0.0,0.0,100,0.00,,,0.00,WUHU21623XXSP,2013-02-24 09:45:00,
2013-02-24 04:50:00,30.9,30.9,29.84,ESE,112,0.0,0.0,100,0.00,,,0.00,WUHU21623XXSP,2013-02-24 09:50:00,
2013-02-24 04:55:00,30.7,30.7,29.84,ESE,112,0.0,0.0,100,0.00,,,0.00,WUHU21623XXSP,2013-02-24 09:55:00,
2013-02-24 05:00:00,30.9,30.9,29.85,ESE,112,0.0,0.0,100,0.00,,,0.00,WUHU21623XXSP,2013-02-24 10:00:00,
2013-02-24 05:05:00,30.7,30.7,29.85,ESE,112,0.0,0.0,100,0.00,,,0.00,WUHU21623XXSP,2013-02-24 10:05:00,
2013-02-24 05:10:00,30.7,30.7,29.85,ESE,112,0.0,0.0,100,0.00,,,0.00,WUHU21623XXSP,2013-02-24 10:10:00,
2013-02-24 05:15:00,30.7,30.7,29.85,ESE,112,0.0,0.0,100,0.00,,,0.00,WUHU21623XXSP,2013-02-24 10:15:00,
2013-02-24 05:20:00,30.7,30.7,29.85,ESE,112,0.0,0.0,100,0.00,,,0.00,WUHU21623XXSP,2013-02-24 10:20:00,
2013-02-24 05:25:00,30.7,30.7,29.85,ESE,112,0.0,0.0,100,0.00,,,0.00,WUHU21623XXSP,2013-02-24 10:25:00,
2013-02-24 05:30:00,30.7,30.7,29.85,ESE,112,0.0,0.0,100,0.00,,,0.00,WUHU21623XXSP,2013-02-24 10:30:00,
2013-02-24 05:35:00,30.6,30.6,29.85,ESE,112,0.0,0.0,100,0.00,,,0.00,WUHU21623XXSP,2013-02-24 10:35:00,
2013-02-24 05:40:00,30.7,30.7,29.85,ESE,112,0.0,0.0,100,0.00,,,0.00,WUHU21623XXSP,2013-02-24 10:40:00,
2013-02-24 05:45:00,30.7,30.7,29.85,ESE,112,0.0,0.0,100,0.00,,,0.00,WUHU21623XXSP,2013-02-24 10:45:00,
2013-02-24 05:50:00,30.7,30.7,29.85,ESE,112,0.0,0.0,100,0.00,,,0.00,WUHU21623XXSP,2013-02-24 10:50:00,
2013-02-24 05:55:00,30.7,30.7,29.85,ESE,112,0.0,0.0,100,0.00,,,0.00,WUHU21623XXSP,2013-02-24 10:55:00,
2013-02-24 06:00:00,30.6,30.6,29.85,ESE,112,0.0,0.0,100,0.00,,,0.00,WUHU21623XXSP,2013-02-24 11:00:00,
2013-02-24 06:05:00,30.6,30.6,29.84,ESE,112,0.0,0.0,100,0.00,,,0.00,WUHU21623XXSP,2013-02-24 11:05:00,
2013-02-24 06:10:00,30.6,30.6,29.84,ESE,112,0.0,0.0,100,0.00,,,0.00,WUHU21623XXSP,2013-02-24 11:10:00,
2013-02-24 06:15:00,30.7,30.7,29.84,ESE,112,0.0,0.0,100,0.00,,,0.00,WUHU21623XXSP,2013-02-24 11:15:00,
2013-02-24 06:20:00,30.6,30.6,29.84,ESE,112,0.0,0.0,100,0.00,,,0.00,WUHU21623XXSP,2013-02-24 11:20:00,
2013-02-24 06:25:00,30.6,30.6,29.84,ESE,112,0.0,0.0,100,0.00,,,0.00,WUHU21623XXSP,2013-02-24 11:25:00,
2013-02-24 06:30:00,30.6,30.6,29.84,ESE,112,0.0,0.0,100,0.00,,,0.00,WUHU21623XXSP,2013-02-24 11:30:00,
2013-02-24 06:35:00,30.6,30.6,29.84,ESE,112,0.0,0.0,100,0.00,,,0.00,WUHU21623XXSP,2013-02-24 11:35:00,
2013-02-24 06:40:00,30.6,30.6,29.84,ESE,112,0.0,0.0,100,0.00,,,0.00,WUHU21623XXSP,2013-02-24 11:40:00,
2013-02-24 06:45:00,30.6,30.6,29.84,ESE,112,0.0,0.0,100,0.00,,,0.00,WUHU21623XXSP,2013-02-24 11:45:00,
2013-02-24 06:50:00,30.4,30.4,29.84,ESE,112,0.0,0.0,100,0.00,,,0.00,WUHU21623XXSP,2013-02-24 11:50:00,
2013-02-24 06:55:00,30.6,30.6,29.84,ESE,112,0.0,0.0,100,0.00,,,0.00,WUHU21623XXSP,2013-02-24 11:55:00,
2013-02-24 07:00:00,30.6,30.6,29.84,ESE,112,0.0,0.0,100,0.00,,,0.00,WUHU21623XXSP,2013-02-24 12:00:00,
2013-02-24 07:05:00,30.6,30.6,29.84,ESE,112,0.0,0.0,100,0.00,,,0.00,WUHU21623XXSP,2013-02-24 12:05:00,
2013-02-24 07:10:00,30.6,30.6,29.83,ESE,112,0.0,0.0,100,0.00,,,0.00,WUHU21623XXSP,2013-02-24 12:10:00,
2013-02-24 07:15:00,30.6,30.6,29.83,ESE,112,0.0,0.0,100,0.00,,,0.00,WUHU21623XXSP,2013-02-24 12:15:00,
2013-02-24 07:20:00,30.6,30.6,29.83,ESE,112,0.0,0.0,100,0.00,,,0.00,WUHU21623XXSP,2013-02-24 12:20:00,
2013-02-24 07:25:00,30.6,30.6,29.83,ESE,112,0.0,0.0,100,0.00,,,0.00,WUHU21623XXSP,2013-02-24 12:25:00,
2013-02-24 07:30:00,30.7,30.7,29.83,ESE,112,0.0,0.0,100,0.00,,,0.00,WUHU21623XXSP,2013-02-24 12:30:00,
2013-02-24 07:36:00,30.7,30.7,29.83,ESE,112,0.0,0.0,100,0.00,,,0.00,WUHU21623XXSP,2013-02-24 12:36:00,
2013-02-24 07:41:00,30.7,30.7,29.83,ESE,112,0.0,0.0,100,0.00,,,0.00,WUHU21623XXSP,2013-02-24 12:41:00,
2013-02-24 07:46:00,30.7,30.7,29.83,ESE,112,0.0,0.0,100,0.00,,,0.00,WUHU21623XXSP,2013-02-24 12:46:00,
2013-02-24 07:51:00,30.7,30.7,29.83,ESE,112,0.0,0.0,100,0.00,,,0.00,WUHU21623XXSP,2013-02-24 12:51:00,
2013-02-24 07:56:00,30.9,30.9,29.83,ESE,112,0.0,0.0,100,0.00,,,0.00,WUHU21623XXSP,2013-02-24 12:56:00,
2013-02-24 08:01:00,31.1,31.1,29.83,ESE,112,0.0,0.0,100,0.00,,,0.00,WUHU21623XXSP,2013-02-24 13:01:00,
2013-02-24 08:06:00,31.1,31.1,29.83,ESE,112,0.0,0.0,100,0.00,,,0.00,WUHU21623XXSP,2013-02-24 13:06:00,
2013-02-24 08:11:00,31.3,31.3,29.83,ESE,112,0.0,0.0,100,0.00,,,0.00,WUHU21623XXSP,2013-02-24 13:11:00,
2013-02-24 08:16:00,31.5,31.5,29.82,ESE,112,0.0,0.0,100,0.00,,,0.00,WUHU21623XXSP,2013-02-24 13:16:00,
2013-02-24 08:21:00,31.5,31.5,29.83,ESE,112,0.0,0.0,100,0.00,,,0.00,WUHU21623XXSP,2013-02-24 13:21:00,
2013-02-24 08:26:00,31.6,31.6,29.83,ESE,112,0.0,0.0,100,0.00,,,0.00,WUHU21623XXSP,2013-02-24 13:26:00,
2013-02-24 08:31:00,31.6,31.6,29.82,ESE,112,0.0,0.0,100,0.00,,,0.00,WUHU21623XXSP,2013-02-24 13:31:00,
2013-02-24 08:36:00,31.8,31.8,29.82,ESE,112,0.0,0.0,100,0.00,,,0.00,WUHU21623XXSP,2013-02-24 13:36:00,
2013-02-24 08:41:00,32.0,32.0,29.82,ESE,112,0.0,0.0,100,0.00,,,0.00,WUHU21623XXSP,2013-02-24 13:41:00,
2013-02-24 08:46:00,32.0,32.0,29.82,ESE,112,0.0,0.0,100,0.00,,,0.00,WUHU21623XXSP,2013-02-24 13:46:00,
2013-02-24 08:51:00,32.2,32.2,29.82,ESE,112,0.0,0.0,100,0.00,,,0.00,WUHU21623XXSP,2013-02-24 13:51:00,
2013-02-24 08:56:00,32.0,32.0,29.81,ESE,112,0.0,0.0,100,0.00,,,0.00,WUHU21623XXSP,2013-02-24 13:56:00,
2013-02-24 09:01:00,32.2,32.2,29.81,ESE,112,0.0,0.0,100,0.00,,,0.00,WUHU21623XXSP,2013-02-24 14:01:00,
2013-02-24 09:06:00,32.0,32.0,29.81,ESE,112,0.0,0.0,100,0.00,,,0.00,WUHU21623XXSP,2013-02-24 14:06:00,
2013-02-24 09:11:00,32.2,32.2,29.81,ESE,112,0.0,0.0,100,0.00,,,0.00,WUHU21623XXSP,2013-02-24 14:11:00,
2013-02-24 09:16:00,32.2,32.2,29.81,ESE,112,0.0,0.0,100,0.00,,,0.00,WUHU21623XXSP,2013-02-24 14:16:00,
2013-02-24 09:21:00,32.2,32.2,29.81,ESE,112,0.0,0.0,100,0.00,,,0.00,WUHU21623XXSP,2013-02-24 14:21:00,
2013-02-24 09:26:00,32.2,32.2,29.81,ESE,112,0.0,0.0,100,0.00,,,0.00,WUHU21623XXSP,2013-02-24 14:26:00,
2013-02-24 09:31:00,32.2,32.2,29.81,ESE,112,0.0,0.0,100,0.00,,,0.00,WUHU21623XXSP,2013-02-24 14:31:00,
2013-02-24 09:36:00,32.4,32.4,29.80,ESE,112,0.0,0.0,100,0.00,,,0.00,WUHU21623XXSP,2013-02-24 14:36:00,
2013-02-24 09:41:00,32.4,32.4,29.80,ESE,112,0.0,0.0,100,0.00,,,0.00,WUHU21623XXSP,2013-02-24 14:41:00,
2013-02-24 09:46:00,32.4,32.4,29.80,ESE,112,0.0,0.0,100,0.00,,,0.00,WUHU21623XXSP,2013-02-24 14:46:00,
2013-02-24 09:51:00,32.4,32.4,29.80,ESE,112,0.0,0.0,100,0.00,,,0.00,WUHU21623XXSP,2013-02-24 14:51:00,
2013-02-24 09:56:00,32.4,32.4,29.80,ESE,112,0.0,0.0,100,0.00,,,0.00,WUHU21623XXSP,2013-02-24 14:56:00,
2013-02-24 10:01:00,32.2,32.2,29.79,ESE,112,0.0,0.0,100,0.00,,,0.00,WUHU21623XXSP,2013-02-24 15:01:00,
2013-02-24 10:06:00,32.4,32.4,29.79,ESE,112,0.0,0.0,100,0.00,,,0.00,WUHU21623XXSP,2013-02-24 15:06:00,
2013-02-24 10:11:00,32.4,32.4,29.79,ESE,112,0.0,0.0,100,0.00,,,0.00,WUHU21623XXSP,2013-02-24 15:11:00,
2013-02-24 10:16:00,32.4,32.4,29.79,ESE,112,0.0,0.0,100,0.00,,,0.00,WUHU21623XXSP,2013-02-24 15:16:00,
2013-02-24 10:21:00,32.4,32.4,29.79,ESE,112,0.0,0.0,100,0.00,,,0.00,WUHU21623XXSP,2013-02-24 15:21:00,
2013-02-24 10:26:00,32.4,32.4,29.79,ESE,112,0.0,0.0,100,0.00,,,0.00,WUHU21623XXSP,2013-02-24 15:26:00,
2013-02-24 10:31:00,32.5,32.5,29.79,ESE,112,0.0,0.0,100,0.00,,,0.00,WUHU21623XXSP,2013-02-24 15:31:00,
2013-02-24 10:36:00,32.5,32.5,29.79,ESE,112,0.0,0.0,100,0.00,,,0.00,WUHU21623XXSP,2013-02-24 15:36:00,
2013-02-24 10:41:00,32.7,32.7,29.79,ESE,112,0.0,0.0,100,0.00,,,0.00,WUHU21623XXSP,2013-02-24 15:41:00,
2013-02-24 10:46:00,32.7,32.7,29.78,ESE,112,0.0,0.0,100,0.00,,,0.00,WUHU21623XXSP,2013-02-24 15:46:00,
2013-02-24 10:51:00,32.7,32.7,29.79,ESE,112,0.0,0.0,100,0.00,,,0.00,WUHU21623XXSP,2013-02-24 15:51:00,
2013-02-24 10:56:00,32.9,32.9,29.79,ESE,112,0.0,0.0,100,0.00,,,0.00,WUHU21623XXSP,2013-02-24 15:56:00,
2013-02-24 11:01:00,32.9,32.9,29.79,ESE,112,0.0,0.0,100,0.00,,,0.00,WUHU21623XXSP,2013-02-24 16:01:00,
2013-02-24 11:06:00,32.9,32.9,29.79,ESE,112,0.0,0.0,100,0.00,,,0.00,WUHU21623XXSP,2013-02-24 16:06:00,
2013-02-24 11:11:00,32.9,32.9,29.78,ESE,112,0.0,0.0,100,0.00,,,0.00,WUHU21623XXSP,2013-02-24 16:11:00,
2013-02-24 11:16:00,32.9,32.9,29.78,ESE,112,0.0,0.0,100,0.00,,,0.00,WUHU21623XXSP,2013-02-24 16:16:00,
2013-02-24 11:21:00,32.9,32.9,29.78,ESE,112,0.0,0.0,100,0.00,,,0.00,WUHU21623XXSP,2013-02-24 16:21:00,
2013-02-24 11:26:00,33.3,33.3,29.79,ESE,112,0.0,0.0,100,0.00,,,0.00,WUHU21623XXSP,2013-02-24 16:26:00,
2013-02-24 11:31:00,33.3,33.3,29.78,ESE,112,0.0,0.0,100,0.00,,,0.00,WUHU21623XXSP,2013-02-24 16:31:00,
2013-02-24 11:36:00,33.3,33.3,29.78,ESE,112,0.0,0.0,100,0.00,,,0.00,WUHU21623XXSP,2013-02-24 16:36:00,
2013-02-24 11:41:00,33.3,33.3,29.78,ESE,112,0.0,0.0,100,0.00,,,0.00,WUHU21623XXSP,2013-02-24 16:41:00,
2013-02-24 11:46:00,33.3,33.3,29.78,ESE,112,0.0,0.0,100,0.00,,,0.00,WUHU21623XXSP,2013-02-24 16:46:00,
2013-02-24 11:51:00,33.4,33.4,29.78,ESE,112,0.0,0.0,100,0.00,,,0.00,WUHU21623XXSP,2013-02-24 16:51:00,
2013-02-24 11:56:00,33.4,33.4,29.77,ESE,112,0.0,0.0,100,0.00,,,0.00,WUHU21623XXSP,2013-02-24 16:56:00,
2013-02-24 12:01:00,33.4,33.4,29.77,ESE,112,0.0,0.0,100,0.00,,,0.00,WUHU21623XXSP,2013-02-24 17:01:00,
2013-02-24 12:06:00,33.4,33.4,29.77,ESE,112,0.0,0.0,100,0.00,,,0.00,WUHU21623XXSP,2013-02-24 17:06:00,
2013-02-24 12:11:00,33.8,33.8,29.77,ESE,112,0.0,0.0,100,0.00,,,0.00,WUHU21623XXSP,2013-02-24 17:11:00,
2013-02-24 12:16:00,33.8,33.8,29.77,ESE,112,0.0,0.0,100,0.00,,,0.00,WUHU21623XXSP,2013-02-24 17:16:00,
2013-02-24 12:21:00,34.0,34.0,29.77,ESE,112,0.0,0.0,100,0.00,,,0.00,WUHU21623XXSP,2013-02-24 17:21:00,
2013-02-24 12:26:00,34.2,34.2,29.77,ESE,112,0.0,0.0,100,0.00,,,0.00,WUHU21623XXSP,2013-02-24 17:26:00,
2013-02-24 12:31:00,34.3,34.3,29.76,ESE,112,0.0,0.0,100,0.00,,,0.00,WUHU21623XXSP,2013-02-24 17:31:00,
2013-02-24 12:36:00,34.5,34.5,29.76,ESE,112,0.0,0.0,100,0.00,,,0.00,WUHU21623XXSP,2013-02-24 17:36:00,
2013-02-24 12:41:00,34.7,34.7,29.76,ESE,112,0.0,0.0,100,0.00,,,0.00,WUHU21623XXSP,2013-02-24 17:41:00,
2013-02-24 12:46:00,34.9,34.9,29.76,ESE,112,0.0,0.0,100,0.00,,,0.00,WUHU21623XXSP,2013-02-24 17:46:00,
2013-02-24 12:51:00,35.1,35.1,29.76,ESE,112,0.0,0.0,100,0.00,,,0.00,WUHU21623XXSP,2013-02-24 17:51:00,
2013-02-24 12:56:00,35.2,35.2,29.76,ESE,112,0.0,0.0,100,0.00,,,0.00,WUHU21623XXSP,2013-02-24 17:56:00,
2013-02-24 13:01:00,35.4,35.4,29.76,ESE,112,0.0,0.0,100,0.00,,,0.00,WUHU21623XXSP,2013-02-24 18:01:00,
2013-02-24 13:06:00,35.2,35.2,29.76,ESE,112,0.0,0.0,100,0.00,,,0.00,WUHU21623XXSP,2013-02-24 18:06:00,
2013-02-24 13:11:00,35.4,35.4,29.76,ESE,112,0.0,0.0,100,0.00,,,0.00,WUHU21623XXSP,2013-02-24 18:11:00,
2013-02-24 13:16:00,35.1,35.1,29.76,ESE,112,0.0,0.0,100,0.00,,,0.00,WUHU21623XXSP,2013-02-24 18:16:00,
2013-02-24 13:21:00,35.1,35.1,29.76,ESE,112,0.0,0.0,100,0.00,,,0.00,WUHU21623XXSP,2013-02-24 18:21:00,
2013-02-24 13:26:00,34.9,34.9,29.76,ESE,112,0.0,0.0,100,0.00,,,0.00,WUHU21623XXSP,2013-02-24 18:26:00,
2013-02-24 13:31:00,34.9,34.9,29.76,ESE,112,0.0,0.0,100,0.00,,,0.00,WUHU21623XXSP,2013-02-24 18:31:00,
2013-02-24 13:36:00,34.7,34.7,29.76,ESE,112,0.0,0.0,100,0.00,,,0.00,WUHU21623XXSP,2013-02-24 18:36:00,
2013-02-24 13:41:00,34.9,34.9,29.75,ESE,112,0.0,0.0,100,0.00,,,0.00,WUHU21623XXSP,2013-02-24 18:41:00,
2013-02-24 13:46:00,34.7,34.7,29.75,ESE,112,0.0,0.0,100,0.00,,,0.00,WUHU21623XXSP,2013-02-24 18:46:00,
2013-02-24 13:51:00,34.7,34.7,29.75,ESE,112,0.0,0.0,100,0.00,,,0.00,WUHU21623XXSP,2013-02-24 18:51:00,
2013-02-24 13:56:00,34.5,34.5,29.75,WSW,247,0.0,0.0,100,0.00,,,0.00,WUHU21623XXSP,2013-02-24 18:56:00,
2013-02-24 14:01:00,34.7,34.7,29.75,WSW,247,0.0,0.0,100,0.00,,,0.00,WUHU21623XXSP,2013-02-24 19:01:00,
2013-02-24 14:06:00,34.9,34.9,29.74,WSW,247,0.0,0.0,100,0.00,,,0.00,WUHU21623XXSP,2013-02-24 19:06:00,
2013-02-24 14:11:00,35.1,35.1,29.75,WSW,247,0.0,0.0,100,0.00,,,0.00,WUHU21623XXSP,2013-02-24 19:11:00,
2013-02-24 14:16:00,35.1,35.1,29.74,WSW,247,0.0,0.0,100,0.00,,,0.00,WUHU21623XXSP,2013-02-24 19:16:00,
2013-02-24 14:21:00,35.1,35.1,29.74,WSW,247,0.0,0.0,100,0.00,,,0.00,WUHU21623XXSP,2013-02-24 19:21:00,
2013-02-24 14:26:00,35.1,35.1,29.75,WSW,247,0.0,0.0,100,0.00,,,0.00,WUHU21623XXSP,2013-02-24 19:26:00,
2013-02-24 14:31:00,35.1,35.1,29.74,WSW,247,0.0,0.0,100,0.00,,,0.00,WUHU21623XXSP,2013-02-24 19:31:00,
2013-02-24 14:36:00,35.1,35.1,29.74,WNW,292,0.0,0.0,100,0.00,,,0.00,WUHU21623XXSP,2013-02-24 19:36:00,
2013-02-24 14:41:00,35.2,35.2,29.74,WNW,292,0.0,0.0,100,0.00,,,0.00,WUHU21623XXSP,2013-02-24 19:41:00,
2013-02-24 14:46:00,35.4,35.4,29.74,WSW,247,0.0,0.0,100,0.00,,,0.00,WUHU21623XXSP,2013-02-24 19:46:00,
2013-02-24 14:51:00,35.4,35.4,29.74,WSW,247,0.0,0.0,100,0.00,,,0.00,WUHU21623XXSP,2013-02-24 19:51:00,
2013-02-24 14:56:00,35.6,35.6,29.74,WSW,247,0.0,0.0,100,0.00,,,0.00,WUHU21623XXSP,2013-02-24 19:56:00,
2013-02-24 15:01:00,35.4,35.4,29.74,WSW,247,0.0,0.0,100,0.00,,,0.00,WUHU21623XXSP,2013-02-24 20:01:00,
2013-02-24 15:06:00,35.8,35.8,29.74,WSW,247,0.0,0.0,100,0.00,,,0.00,WUHU21623XXSP,2013-02-24 20:06:00,
2013-02-24 15:11:00,35.6,35.6,29.74,WSW,247,0.0,0.0,100,0.00,,,0.00,WUHU21623XXSP,2013-02-24 20:11:00,
2013-02-24 15:16:00,35.8,35.8,29.74,WSW,247,0.0,0.0,100,0.00,,,0.00,WUHU21623XXSP,2013-02-24 20:16:00,
2013-02-24 15:21:00,35.8,35.8,29.74,WSW,247,0.0,0.0,100,0.00,,,0.00,WUHU21623XXSP,2013-02-24 20:21:00,
2013-02-24 15:34:00,35.8,35.8,29.75,WSW,248,0.0,0.0,100,0.00,,,0.00,WUHU21623XXSP,2013-02-24 20:34:00,
2013-02-24 15:39:00,36.0,36.0,29.74,WSW,247,0.0,0.0,100,0.00,,,0.00,WUHU21623XXSP,2013-02-24 20:39:00,
2013-02-24 15:44:00,36.0,36.0,29.74,WSW,247,0.0,0.0,100,0.00,,,0.00,WUHU21623XXSP,2013-02-24 20:44:00,
2013-02-24 15:49:00,36.0,36.0,29.75,WSW,247,0.0,0.0,100,0.00,,,0.00,WUHU21623XXSP,2013-02-24 20:49:00,
2013-02-24 15:54:00,35.8,35.8,29.75,WSW,247,0.0,0.0,100,0.00,,,0.00,WUHU21623XXSP,2013-02-24 20:54:00,
2013-02-24 15:59:00,35.4,35.4,29.75,WSW,247,0.0,0.0,100,0.00,,,0.00,WUHU21623XXSP,2013-02-24 20:59:00,
2013-02-24 16:04:00,35.8,35.8,29.75,WSW,247,0.0,0.0,100,0.00,,,0.00,WUHU21623XXSP,2013-02-24 21:04:00,
2013-02-24 16:09:00,35.6,35.6,29.74,WSW,247,0.0,0.0,100,0.00,,,0.00,WUHU21623XXSP,2013-02-24 21:09:00,
2013-02-24 16:14:00,35.6,35.6,29.75,WSW,247,0.0,0.0,100,0.00,,,0.00,WUHU21623XXSP,2013-02-24 21:14:00,
2013-02-24 16:19:00,35.8,35.8,29.74,WSW,247,0.0,0.0,100,0.00,,,0.00,WUHU21623XXSP,2013-02-24 21:19:00,
2013-02-24 16:24:00,35.6,35.6,29.74,WSW,247,0.0,0.0,100,0.00,,,0.00,WUHU21623XXSP,2013-02-24 21:24:00,
2013-02-24 16:29:00,35.4,35.4,29.75,WSW,247,0.0,0.0,100,0.00,,,0.00,WUHU21623XXSP,2013-02-24 21:29:00,
2013-02-24 16:34:00,35.2,35.2,29.75,WSW,247,0.0,0.0,100,0.00,,,0.00,WUHU21623XXSP,2013-02-24 21:34:00,
2013-02-24 16:39:00,35.2,35.2,29.74,WSW,247,0.0,0.0,100,0.00,,,0.00,WUHU21623XXSP,2013-02-24 21:39:00,
2013-02-24 16:44:00,35.1,35.1,29.75,WSW,247,0.0,0.0,100,0.00,,,0.00,WUHU21623XXSP,2013-02-24 21:44:00,
2013-02-24 16:49:00,34.9,34.9,29.75,WSW,247,0.0,0.0,100,0.00,,,0.00,WUHU21623XXSP,2013-02-24 21:49:00,
2013-02-24 17:00:00,34.5,34.5,29.75,WSW,247,0.0,0.0,100,0.00,,,0.00,WUHU21623XXSP,2013-02-24 22:00:00,
2013-02-24 17:05:00,34.2,34.2,29.75,WSW,247,0.0,0.0,100,0.00,,,0.00,WUHU21623XXSP,2013-02-24 22:05:00,
2013-02-24 17:10:00,34.2,34.2,29.76,WSW,247,0.0,0.0,100,0.00,,,0.00,WUHU21623XXSP,2013-02-24 22:10:00,
2013-02-24 17:15:00,34.0,34.0,29.76,WSW,247,0.0,0.0,100,0.00,,,0.00,WUHU21623XXSP,2013-02-24 22:15:00,
2013-02-24 17:20:00,33.8,33.8,29.76,WSW,247,0.0,0.0,100,0.00,,,0.00,WUHU21623XXSP,2013-02-24 22:20:00,
2013-02-24 17:25:00,33.6,33.6,29.76,WSW,247,0.0,0.0,100,0.00,,,0.00,WUHU21623XXSP,2013-02-24 22:25:00,
2013-02-24 17:30:00,33.4,33.4,29.76,WSW,247,0.0,0.0,100,0.00,,,0.00,WUHU21623XXSP,2013-02-24 22:30:00,
2013-02-24 17:35:00,33.4,33.4,29.76,WSW,247,0.0,0.0,100,0.00,,,0.00,WUHU21623XXSP,2013-02-24 22:35:00,
2013-02-24 17:40:00,33.3,33.3,29.77,WSW,247,0.0,0.0,100,0.00,,,0.00,WUHU21623XXSP,2013-02-24 22:40:00,
2013-02-24 17:45:00,33.3,33.3,29.77,WSW,247,0.0,0.0,100,0.00,,,0.00,WUHU21623XXSP,2013-02-24 22:45:00,
2013-02-24 17:50:00,33.3,33.3,29.77,WSW,247,0.0,0.0,100,0.00,,,0.00,WUHU21623XXSP,2013-02-24 22:50:00,
2013-02-24 17:55:00,33.1,33.1,29.77,WSW,247,0.0,0.0,100,0.00,,,0.00,WUHU21623XXSP,2013-02-24 22:55:00,
2013-02-24 18:00:00,32.9,32.9,29.77,WSW,247,0.0,0.0,100,0.00,,,0.00,WUHU21623XXSP,2013-02-24 23:00:00,
2013-02-24 18:05:00,32.7,32.7,29.77,WSW,247,0.0,0.0,100,0.00,,,0.00,WUHU21623XXSP,2013-02-24 23:05:00,
2013-02-24 18:10:00,32.7,32.7,29.77,WSW,247,0.0,0.0,100,0.00,,,0.00,WUHU21623XXSP,2013-02-24 23:10:00,
2013-02-24 18:15:00,32.7,32.7,29.78,WSW,247,0.0,0.0,100,0.00,,,0.00,WUHU21623XXSP,2013-02-24 23:15:00,
2013-02-24 18:20:00,32.5,32.5,29.78,WSW,247,0.0,0.0,100,0.00,,,0.00,WUHU21623XXSP,2013-02-24 23:20:00,
2013-02-24 18:25:00,32.5,32.5,29.78,WSW,247,0.0,0.0,100,0.00,,,0.00,WUHU21623XXSP,2013-02-24 23:25:00,
2013-02-24 18:30:00,32.4,32.4,29.78,WSW,247,0.0,0.0,100,0.00,,,0.00,WUHU21623XXSP,2013-02-24 23:30:00,
2013-02-24 18:35:00,32.4,32.4,29.78,WSW,247,0.0,0.0,100,0.00,,,0.00,WUHU21623XXSP,2013-02-24 23:35:00,
2013-02-24 18:40:00,32.4,32.4,29.78,WSW,247,0.0,0.0,100,0.00,,,0.00,WUHU21623XXSP,2013-02-24 23:40:00,
2013-02-24 18:45:00,32.4,32.4,29.79,WSW,247,0.0,0.0,100,0.00,,,0.00,WUHU21623XXSP,2013-02-24 23:45:00,
2013-02-24 18:50:00,32.4,32.4,29.79,WSW,247,0.0,0.0,100,0.00,,,0.00,WUHU21623XXSP,2013-02-24 23:50:00,
2013-02-24 18:55:00,32.4,32.4,29.79,WSW,247,0.0,0.0,100,0.00,,,0.00,WUHU21623XXSP,2013-02-24 23:55:00,
2013-02-24 19:00:00,32.4,32.4,29.80,WSW,247,0.0,0.0,100,0.00,,,0.00,WUHU21623XXSP,2013-02-25 00:00:00,
2013-02-24 19:05:00,32.2,32.2,29.80,WSW,247,0.0,0.0,100,0.00,,,0.00,WUHU21623XXSP,2013-02-25 00:05:00,
2013-02-24 19:10:00,32.2,32.2,29.80,WSW,247,0.0,0.0,100,0.00,,,0.00,WUHU21623XXSP,2013-02-25 00:10:00,
2013-02-24 19:15:00,32.2,32.2,29.80,WSW,247,0.0,0.0,100,0.00,,,0.00,WUHU21623XXSP,2013-02-25 00:15:00,
2013-02-24 19:20:00,32.2,32.2,29.80,WSW,247,0.0,0.0,100,0.00,,,0.00,WUHU21623XXSP,2013-02-25 00:20:00,
2013-02-24 19:25:00,32.2,32.2,29.81,WSW,247,0.0,0.0,100,0.00,,,0.00,WUHU21623XXSP,2013-02-25 00:25:00,
2013-02-24 19:30:00,32.2,32.2,29.81,WSW,247,0.0,0.0,100,0.00,,,0.00,WUHU21623XXSP,2013-02-25 00:30:00,
2013-02-24 19:35:00,32.2,32.2,29.81,WSW,247,0.0,0.0,100,0.00,,,0.00,WUHU21623XXSP,2013-02-25 00:35:00,
2013-02-24 19:40:00,31.6,31.6,29.82,WSW,247,0.0,0.0,100,0.00,,,0.00,WUHU21623XXSP,2013-02-25 00:40:00,
2013-02-24 19:45:00,31.6,31.6,29.82,WSW,247,0.0,0.0,100,0.00,,,0.00,WUHU21623XXSP,2013-02-25 00:45:00,
2013-02-24 19:50:00,31.6,31.6,29.82,WSW,247,0.0,0.0,100,0.00,,,0.00,WUHU21623XXSP,2013-02-25 00:50:00,
2013-02-24 19:55:00,31.6,31.6,29.82,WSW,247,0.0,0.0,100,0.00,,,0.00,WUHU21623XXSP,2013-02-25 00:55:00,
2013-02-24 20:00:00,31.5,31.5,29.82,WSW,247,0.0,0.0,100,0.00,,,0.00,WUHU21623XXSP,2013-02-25 01:00:00,
2013-02-24 20:05:00,31.5,31.5,29.82,WSW,247,0.0,0.0,100,0.00,,,0.00,WUHU21623XXSP,2013-02-25 01:05:00,
2013-02-24 20:10:00,31.3,31.3,29.83,WSW,247,0.0,0.0,100,0.00,,,0.00,WUHU21623XXSP,2013-02-25 01:10:00,
2013-02-24 20:15:00,31.3,31.3,29.83,WSW,247,0.0,0.0,100,0.00,,,0.00,WUHU21623XXSP,2013-02-25 01:15:00,
2013-02-24 20:20:00,31.3,31.3,29.82,WSW,247,0.0,0.0,100,0.00,,,0.00,WUHU21623XXSP,2013-02-25 01:20:00,
2013-02-24 20:25:00,31.3,31.3,29.83,WSW,247,0.0,0.0,100,0.00,,,0.00,WUHU21623XXSP,2013-02-25 01:25:00,
2013-02-24 20:30:00,31.1,31.1,29.83,WSW,247,0.0,0.0,100,0.00,,,0.00,WUHU21623XXSP,2013-02-25 01:30:00,
2013-02-24 20:35:00,31.1,31.1,29.84,WSW,247,0.0,0.0,100,0.00,,,0.00,WUHU21623XXSP,2013-02-25 01:35:00,
2013-02-24 20:40:00,31.1,31.1,29.84,WSW,247,0.0,0.0,100,0.00,,,0.00,WUHU21623XXSP,2013-02-25 01:40:00,
2013-02-24 20:45:00,31.1,31.1,29.84,WSW,247,0.0,0.0,100,0.00,,,0.00,WUHU21623XXSP,2013-02-25 01:45:00,
2013-02-24 20:50:00,31.1,31.1,29.84,WSW,247,0.0,0.0,100,0.00,,,0.00,WUHU21623XXSP,2013-02-25 01:50:00,
2013-02-24 20:55:00,31.1,31.1,29.84,WSW,247,0.0,0.0,100,0.00,,,0.00,WUHU21623XXSP,2013-02-25 01:55:00,
2013-02-24 21:00:00,31.1,31.1,29.85,WSW,247,0.0,0.0,100,0.00,,,0.00,WUHU21623XXSP,2013-02-25 02:00:00,
2013-02-24 21:05:00,30.9,30.9,29.85,WSW,247,0.0,0.0,100,0.00,,,0.00,WUHU21623XXSP,2013-02-25 02:05:00,
2013-02-24 21:10:00,30.9,30.9,29.85,WSW,247,0.0,0.0,100,0.00,,,0.00,WUHU21623XXSP,2013-02-25 02:10:00,
2013-02-24 21:15:00,30.9,30.9,29.85,WSW,247,0.0,0.0,100,0.00,,,0.00,WUHU21623XXSP,2013-02-25 02:15:00,
2013-02-24 21:20:00,30.9,30.9,29.84,WSW,247,0.0,0.0,100,0.00,,,0.00,WUHU21623XXSP,2013-02-25 02:20:00,
2013-02-24 21:25:00,30.9,30.9,29.84,WSW,247,0.0,0.0,100,0.00,,,0.00,WUHU21623XXSP,2013-02-25 02:25:00,
2013-02-24 21:30:00,30.9,30.9,29.84,WSW,247,0.0,0.0,100,0.00,,,0.00,WUHU21623XXSP,2013-02-25 02:30:00,
2013-02-24 21:35:00,30.9,30.9,29.85,WSW,247,0.0,0.0,100,0.00,,,0.00,WUHU21623XXSP,2013-02-25 02:35:00,
2013-02-24 21:40:00,30.9,30.9,29.85,WSW,247,0.0,0.0,100,0.00,,,0.00,WUHU21623XXSP,2013-02-25 02:40:00,
2013-02-24 21:45:00,30.7,30.7,29.85,WSW,247,0.0,0.0,100,0.00,,,0.00,WUHU21623XXSP,2013-02-25 02:45:00,
2013-02-24 21:50:00,30.7,30.7,29.85,WSW,247,0.0,0.0,100,0.00,,,0.00,WUHU21623XXSP,2013-02-25 02:50:00,
2013-02-24 21:55:00,30.7,30.7,29.85,WSW,247,0.0,0.0,100,0.00,,,0.00,WUHU21623XXSP,2013-02-25 02:55:00,
2013-02-24 22:00:00,30.7,30.7,29.85,WSW,247,0.0,0.0,100,0.00,,,0.00,WUHU21623XXSP,2013-02-25 03:00:00,
2013-02-24 22:05:00,30.7,30.7,29.85,WSW,247,0.0,0.0,100,0.00,,,0.00,WUHU21623XXSP,2013-02-25 03:05:00,
2013-02-24 22:10:00,30.7,30.7,29.84,WSW,247,0.0,0.0,100,0.00,,,0.00,WUHU21623XXSP,2013-02-25 03:10:00,
2013-02-24 22:15:00,30.6,30.6,29.85,WSW,247,0.0,0.0,100,0.00,,,0.00,WUHU21623XXSP,2013-02-25 03:15:00,
2013-02-24 22:20:00,30.6,30.6,29.85,WSW,247,0.0,0.0,100,0.00,,,0.00,WUHU21623XXSP,2013-02-25 03:20:00,
2013-02-24 22:25:00,30.6,30.6,29.85,WSW,247,0.0,0.0,100,0.00,,,0.00,WUHU21623XXSP,2013-02-25 03:25:00,
2013-02-24 22:30:00,30.6,30.6,29.85,WSW,247,0.0,0.0,100,0.00,,,0.00,WUHU21623XXSP,2013-02-25 03:30:00,
2013-02-24 22:35:00,30.6,30.6,29.85,WSW,247,0.0,0.0,100,0.00,,,0.00,WUHU21623XXSP,2013-02-25 03:35:00,
2013-02-24 22:40:00,30.4,30.4,29.86,WSW,247,0.0,0.0,100,0.00,,,0.00,WUHU21623XXSP,2013-02-25 03:40:00,
2013-02-24 22:45:00,30.4,30.4,29.86,WSW,247,0.0,0.0,100,0.00,,,0.00,WUHU21623XXSP,2013-02-25 03:45:00,
2013-02-24 22:50:00,30.6,30.6,29.85,WSW,247,0.0,0.0,100,0.00,,,0.00,WUHU21623XXSP,2013-02-25 03:50:00,
2013-02-24 22:55:00,30.6,30.6,29.85,WSW,247,0.0,0.0,100,0.00,,,0.00,WUHU21623XXSP,2013-02-25 03:55:00,
2013-02-24 23:00:00,30.6,30.6,29.85,SSW,202,0.0,0.0,100,0.00,,,0.00,WUHU21623XXSP,2013-02-25 04:00:00,
2013-02-24 23:05:00,30.6,30.6,29.85,SSW,202,0.0,0.0,100,0.00,,,0.00,WUHU21623XXSP,2013-02-25 04:05:00,
2013-02-24 23:10:00,30.6,30.6,29.86,SSW,202,0.0,0.0,100,0.00,,,0.00,WUHU21623XXSP,2013-02-25 04:10:00,
2013-02-24 23:15:00,30.6,30.6,29.86,SSW,202,0.0,0.0,100,0.00,,,0.00,WUHU21623XXSP,2013-02-25 04:15:00,
2013-02-24 23:20:00,30.6,30.6,29.86,SSW,202,0.0,0.0,100,0.00,,,0.00,WUHU21623XXSP,2013-02-25 04:20:00,
2013-02-24 23:25:00,30.6,30.6,29.86,SSW,202,0.0,0.0,100,0.00,,,0.00,WUHU21623XXSP,2013-02-25 04:25:00,
2013-02-24 23:30:00,30.6,30.6,29.86,SSW,202,0.0,0.0,100,0.00,,,0.00,WUHU21623XXSP,2013-02-25 04:30:00,
2013-02-24 23:35:00,30.4,30.4,29.86,SSW,202,0.0,0.0,100,0.00,,,0.00,WUHU21623XXSP,2013-02-25 04:35:00,
2013-02-24 23:40:00,30.4,30.4,29.86,SSW,202,0.0,0.0,100,0.00,,,0.00,WUHU21623XXSP,2013-02-25 04:40:00,
2013-02-24 23:45:00,30.4,30.4,29.86,SSW,202,0.0,0.0,100,0.00,,,0.00,WUHU21623XXSP,2013-02-25 04:45:00,
2013-02-24 23:50:00,30.4,30.4,29.86,SSW,202,0.0,0.0,100,0.00,,,0.00,WUHU21623XXSP,2013-02-25 04:50:00,
2013-02-24 23:55:00,30.2,30.2,29.87,SSW,202,0.0,0.0,100,0.00,,,0.00,WUHU21623XXSP,2013-02-25 04:55:00,